Date,TemperatureHighF,TemperatureAvgF,TemperatureLowF,DewpointHighF,DewpointAvgF,DewpointLowF,HumidityHigh,HumidityAvg,HumidityLow,PressureMaxIn,PressureMinIn,WindSpeedMaxMPH,WindSpeedAvgMPH,GustSpeedMaxMPH,PrecipitationSumIn
2013-2-1,17.2,12.4,7.2,12.2,5.6,1.2,82,74,66,30.41,29.97,10,3,13,0.00
2013-2-2,26.0,20.1,9.9,23.3,16.1,4.7,91,84,74,30.37,30.02,8,2,14,0.00
2013-2-3,24.4,20.0,15.0,21.3,16.0,11.6,90,84,73,30.13,29.93,5,1,9,0.00
2013-2-4,28.6,22.0,12.7,26.6,18.7,10.1,93,87,65,30.13,29.87,6,1,11,0.00
2013-2-5,31.7,27.6,23.8,28.7,24.1,21.3,94,87,76,30.00,29.88,4,2,8,0.05
2013-2-6,32.1,28.5,18.9,28.6,21.8,14.0,88,76,60,30.33,30.00,7,2,12,0.01
2013-2-7,47.7,35.0,19.4,33.5,27.0,15.6,89,74,54,30.28,29.83,5,1,9,0.07
2013-2-8,41.9,33.3,24.4,37.3,28.5,19.3,93,82,75,30.32,29.77,13,6,19,0.14
2013-2-9,35.5,26.2,15.9,21.7,18.5,13.5,92,74,51,30.47,30.31,4,1,5,0.01
2013-2-10,48.6,37.5,22.7,40.9,26.0,17.2,84,64,43,30.31,29.82,11,3,22,0.00
2013-2-11,51.5,44.0,36.2,46.7,35.8,26.5,92,74,56,29.99,29.73,9,5,17,0.00
2013-2-12,44.8,35.3,26.9,29.8,26.2,23.3,87,70,49,30.12,29.93,7,2,11,0.00
2013-2-13,32.6,28.9,24.9,27.5,25.2,22.3,91,86,78,29.93,29.77,6,1,9,0.00
2013-2-14,45.6,33.7,25.3,38.4,29.9,23.0,94,86,75,29.97,29.82,8,3,17,0.00
2013-2-15,34.8,30.0,25.4,30.6,26.5,21.1,92,87,77,30.14,29.97,9,1,12,0.02
2013-2-16,28.6,21.8,13.9,23.3,16.5,6.2,92,80,67,30.14,30.00,9,3,15,0.01
2013-2-17,24.5,17.9,13.1,16.2,10.5,5.9,84,73,57,30.29,30.10,7,3,12,0.00
2013-2-18,49.9,33.3,13.7,37.0,21.3,9.2,84,63,47,30.29,29.76,13,4,22,0.00
2013-2-19,47.5,30.8,20.6,39.0,26.1,14.4,93,83,68,30.07,29.63,13,4,19,0.14
2013-2-20,22.7,19.6,15.6,16.4,13.8,10.7,85,78,68,30.32,30.07,7,3,11,0.00
2013-2-21,27.0,23.3,20.0,19.2,17.1,13.7,86,77,69,30.39,30.21,7,2,12,0.00
2013-2-22,39.9,31.9,25.2,36.6,28.5,18.1,95,87,74,30.23,29.94,6,1,11,0.07
2013-2-23,39.2,33.4,26.8,31.4,28.0,23.4,94,81,63,30.00,29.91,5,1,9,0.01
2013-2-24,34.9,29.9,25.8,25.5,22.9,21.0,87,75,62,30.18,29.94,6,2,10,0.00
2013-2-25,44.3,32.3,19.0,28.9,23.7,16.7,94,72,50,30.23,30.01,2,0,8,0.00
2013-2-26,42.4,36.9,30.0,40.8,32.6,23.8,95,85,65,30.01,29.46,5,1,9,0.56
2013-2-27,42.5,37.6,32.9,40.8,34.8,30.4,94,90,83,29.68,29.48,7,3,15,0.14
2013-2-28,36.7,33.6,31.2,34.0,30.9,28.7,94,90,85,29.92,29.64,9,4,12,0.06